Weather in Krasnoe-na-Volge

Russia / Kostroma Oblast     57°30′33″N   41°14′23″E
temp.,
°C
wind,
m/s
gust,
m/s
humid.,
%
clouds,
%
prec.,
mm/h
press.,
hPa
HPBL,
m
15 may, sat
sat1500:00+14ese2296100 1.8 101549
03:00+13e41097100 3.7 1014219
06:00+15se3996100 1.6 1013277
09:00+20ese698397 3.9 1011319
12:00+19ese61087100 1.3 1010271
15:00+19s488797 7.8 1010316
18:00+18s7138171 0.8 1009586
21:00+15s614930 0.8 1010430
16 may, sun
sun1600:00+13s4119818 0.2 1010271
03:00+13s511961 0.2 1010271
06:00+13s511941 0.0 1011435
09:00+17ssw7107812 0.0 1012877
12:00+20ssw7106212 0.0 10131651
15:00+21sw611630 0.5 10122035
18:00+18sw510749 1.8 1013445
21:00+14ssw49895 2.0 1013170
17 may, mon
mon1700:00+13sw38940 0.0 1014155
03:00+12sw3394100 0.0 101647
06:00+14ssw1291100 0.0 101776
09:00+18sse227798 0.0 1017468
12:00+21sse236397 0.0 10171018
15:00+23se345886 0.0 10161166
18:00+22e347194 0.0 1014178
21:00+17e498844 0.4 1014131
18 may, tue
tue1800:00+15ese489151 0.0 1014121
03:00+14se4690100 0.0 101389
06:00+16se498891 0.0 1013187
09:00+21se611685 0.0 1012435
12:00+25se711585 0.0 1011902
15:00+26se711540 0.0 10101066
18:00+23se613655 0.0 1009385
21:00+18se413765 0.0 1010224
19 may, wed
wed1900:00+17se41083100 0.0 1009202
03:00+16ese3692100 0.8 1009106
06:00+16se41190100 0.0 1008326
09:00+20sse477387 0.0 1007464
12:00+22se4565100 0.0 1006867
15:00+22sse5870100 0.7 10051124
18:00+16sse111888100 2.7 10041163
21:00+14se8159142 4.7 1001704